Location: Allen Fire Department Station 4
(33.1073°N, 96.6988°W)
Time: 16:21:33
(UTC+00:00)

Aurora 2 Rocket - Pass Details

Date: 08 July 2022
Orbit: 389 x 1718 km, 25.0° (Epoch: 06 August)

Event Time Altitude Azimuth Distance (km) Brightness Sun altitude
Rises 05:26:33 0° 267° (W) 4,752 7.3 -32.3°
Reaches altitude 10° 05:30:20 10° 260° (W) 3,605 6.5 -32.5°
Enters shadow 05:34:28 25° 244° (WSW) 2,449 5.4 -32.8°
